• In Denmark
  • List of Countries
  • For 7 days
  • Water Temperature
  • Satellite Maps
  • Weather Map
  • Weather Widgets
  • user-avatar
    Login

    Hourly Weather Szczawiczne

    Today, 20 May, Sunday

    Time Temperature Precipitation Wind Pressure Humidity
    00:00 +9°C° 0 mm 1 mps 719 mmHg 95%
    01:00 +9°C° 0 mm 1 mps 719 mmHg 96%
    02:00 +9°C° 0 mm 1 mps 720 mmHg 96%
    03:00 +9°C° 0 mm 1 mps 720 mmHg 97%
    04:00 +9°C° 0 mm 1 mps 720 mmHg 97%
    05:00 +9°C° 0 mm 2 mps 720 mmHg 93%
    06:00 +12°C° 0 mm 2 mps 721 mmHg 89%
    07:00 +13°C° 0 mm 2 mps 721 mmHg 84%
    08:00 +14°C° 0 mm 2 mps 721 mmHg 80%
    09:00 +14°C° 0 mm 3 mps 721 mmHg 76%
    10:00 +16°C° 0 mm 3 mps 722 mmHg 71%
    11:00 +17°C° 0.2 mm 3 mps 722 mmHg 68%
    12:00 +18°C° 0.2 mm 4 mps 722 mmHg 65%
    13:00 +19°C° 0.2 mm 4 mps 722 mmHg 62%
    14:00 +18°C° 0.3 mm 4 mps 721 mmHg 64%
    15:00 +18°C° 0.3 mm 4 mps 721 mmHg 65%
    16:00 +18°C° 0.3 mm 4 mps 721 mmHg 67%
    17:00 +16°C° 0.1 mm 3 mps 721 mmHg 72%
    18:00 +14°C° 0.1 mm 3 mps 721 mmHg 78%
    19:00 +13°C° 0.1 mm 2 mps 721 mmHg 84%
    20:00 +12°C° 0 mm 2 mps 721 mmHg 86%
    21:00 +10°C° 0 mm 2 mps 721 mmHg 88%
    22:00 +8°C° 0 mm 2 mps 721 mmHg 91%
    23:00 +9°C° 0 mm 1 mps 721 mmHg 91%

    Tomorrow, 21 May, Monday

    Time Temperature Precipitation Wind Pressure Humidity
    00:00 +8°C° 0 mm 1 mps 721 mmHg 92%
    01:00 +8°C° 0 mm 1 mps 721 mmHg 92%
    02:00 +7°C° 0 mm 1 mps 721 mmHg 92%
    03:00 +7°C° 0 mm 1 mps 721 mmHg 93%
    04:00 +7°C° 0 mm 1 mps 721 mmHg 93%
    05:00 +8°C° 0 mm 2 mps 721 mmHg 86%
    06:00 +10°C° 0 mm 2 mps 721 mmHg 79%
    07:00 +11°C° 0 mm 3 mps 721 mmHg 73%
    08:00 +13°C° 0 mm 3 mps 721 mmHg 66%
    09:00 +15°C° 0 mm 4 mps 721 mmHg 60%
    10:00 +17°C° 0 mm 4 mps 721 mmHg 53%
    11:00 +18°C° 0 mm 4 mps 721 mmHg 53%
    12:00 +18°C° 0 mm 4 mps 720 mmHg 53%
    13:00 +19°C° 0 mm 4 mps 720 mmHg 52%
    14:00 +19°C° 0.1 mm 4 mps 720 mmHg 55%
    15:00 +18°C° 0.1 mm 4 mps 719 mmHg 57%
    16:00 +18°C° 0.1 mm 4 mps 719 mmHg 60%
    17:00 +16°C° 0 mm 3 mps 719 mmHg 67%
    18:00 +14°C° 0 mm 3 mps 718 mmHg 74%
    19:00 +13°C° 0 mm 2 mps 718 mmHg 81%
    20:00 +12°C° 0 mm 2 mps 718 mmHg 85%
    21:00 +10°C° 0 mm 2 mps 718 mmHg 88%
    22:00 +9°C° 0 mm 1 mps 718 mmHg 92%
    23:00 +9°C° 0 mm 1 mps 718 mmHg 92%

    Day after tomorrow, 22 May, Tuesday

    Time Temperature Precipitation Wind Pressure Humidity
    00:00 +9°C° 0 mm 1 mps 718 mmHg 93%
    01:00 +9°C° 0 mm 1 mps 717 mmHg 93%
    02:00 +9°C° 0.1 mm 1 mps 717 mmHg 93%
    03:00 +8°C° 0.1 mm 1 mps 717 mmHg 93%
    04:00 +8°C° 0.1 mm 1 mps 717 mmHg 93%
    05:00 +11°C° 0 mm 1 mps 717 mmHg 88%
    06:00 +13°C° 0 mm 1 mps 717 mmHg 82%
    07:00 +15°C° 0 mm 1 mps 718 mmHg 76%
    08:00 +17°C° 0.1 mm 2 mps 718 mmHg 71%
    09:00 +19°C° 0.1 mm 2 mps 718 mmHg 66%
    10:00 +20°C° 0.1 mm 2 mps 718 mmHg 60%
    11:00 +20°C° 0.7 mm 2 mps 718 mmHg 65%
    12:00 +20°C° 0.7 mm 2 mps 718 mmHg 70%
    13:00 +20°C° 0.7 mm 2 mps 717 mmHg 75%
    14:00 +20°C° 0.8 mm 2 mps 717 mmHg 76%
    15:00 +20°C° 0.8 mm 2 mps 717 mmHg 77%
    16:00 +20°C° 0.8 mm 2 mps 717 mmHg 78%
    17:00 +19°C° 0.4 mm 2 mps 717 mmHg 82%
    18:00 +17°C° 0.4 mm 2 mps 717 mmHg 87%
    19:00 +16°C° 0.4 mm 1 mps 717 mmHg 91%
    20:00 +15°C° 0 mm 1 mps 717 mmHg 93%
    21:00 +14°C° 0 mm 1 mps 717 mmHg 94%
    22:00 +13°C° 0 mm 1 mps 717 mmHg 95%
    23:00 +13°C° 0 mm 1 mps 717 mmHg 95%

    23 May, Wednesday

    Time Temperature Precipitation Wind Pressure Humidity
    00:00 +13°C° 0 mm 1 mps 717 mmHg 96%
    01:00 +13°C° 0 mm 1 mps 717 mmHg 96%
    02:00 +12°C° 0 mm 1 mps 718 mmHg 96%
    03:00 +12°C° 0 mm 1 mps 718 mmHg 95%
    04:00 +12°C° 0 mm 1 mps 718 mmHg 95%
    05:00 +14°C° 0 mm 1 mps 718 mmHg 93%
    06:00 +14°C° 0 mm 0 mps 719 mmHg 90%
    07:00 +16°C° 0 mm 0 mps 719 mmHg 88%
    08:00 +19°C° 0.2 mm 1 mps 719 mmHg 82%
    09:00 +21°C° 0.2 mm 1 mps 720 mmHg 75%
    10:00 +22°C° 0.2 mm 1 mps 720 mmHg 69%
    11:00 +22°C° 1 mm 1 mps 720 mmHg 70%
    12:00 +23°C° 1 mm 1 mps 719 mmHg 71%
    13:00 +23°C° 1 mm 1 mps 719 mmHg 72%
    14:00 +23°C° 1.1 mm 1 mps 719 mmHg 75%
    15:00 +22°C° 1.1 mm 1 mps 719 mmHg 77%
    16:00 +22°C° 1.1 mm 1 mps 719 mmHg 80%
    17:00 +21°C° 0.1 mm 1 mps 719 mmHg 84%
    18:00 +19°C° 0.1 mm 1 mps 719 mmHg 88%
    19:00 +18°C° 0.1 mm 1 mps 719 mmHg 92%
    20:00 +16°C° 0.1 mm 1 mps 719 mmHg 93%
    21:00 +16°C° 0.1 mm 1 mps 719 mmHg 94%
    22:00 +15°C° 0.1 mm 1 mps 719 mmHg 95%
    23:00 +14°C° 0 mm 1 mps 719 mmHg 96%

    24 May, Thursday

    Time Temperature Precipitation Wind Pressure Humidity
    00:00 +14°C° 0 mm 1 mps 719 mmHg 96%
    01:00 +14°C° 0 mm 1 mps 719 mmHg 96%
    02:00 +14°C° 0.2 mm 1 mps 719 mmHg 97%
    03:00 +14°C° 0.2 mm 1 mps 719 mmHg 97%
    04:00 +14°C° 0.2 mm 2 mps 719 mmHg 97%
    05:00 +15°C° 0.1 mm 2 mps 719 mmHg 95%
    06:00 +15°C° 0.1 mm 2 mps 719 mmHg 93%
    07:00 +16°C° 0.1 mm 2 mps 719 mmHg 91%
    08:00 +17°C° 0 mm 2 mps 719 mmHg 88%
    09:00 +18°C° 0 mm 3 mps 719 mmHg 84%
    10:00 +19°C° 0 mm 3 mps 720 mmHg 81%
    11:00 +20°C° 0.2 mm 3 mps 719 mmHg 78%
    12:00 +21°C° 0.2 mm 3 mps 719 mmHg 76%
    13:00 +21°C° 0.2 mm 4 mps 719 mmHg 73%
    14:00 +21°C° 0.4 mm 4 mps 719 mmHg 74%
    15:00 +21°C° 0.4 mm 4 mps 719 mmHg 75%
    16:00 +21°C° 0.4 mm 4 mps 719 mmHg 76%
    17:00 +20°C° 0.2 mm 3 mps 719 mmHg 80%
    18:00 +19°C° 0.2 mm 3 mps 719 mmHg 85%
    19:00 +17°C° 0.2 mm 3 mps 718 mmHg 89%
    20:00 +17°C° 0 mm 2 mps 719 mmHg 91%
    21:00 +16°C° 0 mm 2 mps 719 mmHg 93%
    22:00 +15°C° 0 mm 2 mps 719 mmHg 95%
    23:00 +14°C° 0 mm 2 mps 718 mmHg 95%

    25 May, Friday

    Time Temperature Precipitation Wind Pressure Humidity
    00:00 +14°C° 0 mm 2 mps 718 mmHg 96%
    01:00 +14°C° 0 mm 2 mps 718 mmHg 96%
    02:00 +13°C° 0 mm 2 mps 718 mmHg 96%
    03:00 +13°C° 0 mm 2 mps 718 mmHg 97%
    04:00 +13°C° 0 mm 2 mps 718 mmHg 97%
    05:00 +14°C° 0 mm 2 mps 718 mmHg 93%
    06:00 +15°C° 0 mm 2 mps 719 mmHg 89%
    07:00 +17°C° 0 mm 2 mps 719 mmHg 84%
    08:00 +18°C° 0 mm 2 mps 719 mmHg 79%
    09:00 +20°C° 0 mm 3 mps 719 mmHg 74%
    10:00 +21°C° 0 mm 3 mps 719 mmHg 69%
    11:00 +22°C° 0.2 mm 3 mps 719 mmHg 68%
    12:00 +22°C° 0.2 mm 3 mps 719 mmHg 68%
    13:00 +22°C° 0.2 mm 3 mps 719 mmHg 67%
    14:00 +22°C° 0.4 mm 3 mps 719 mmHg 70%
    15:00 +22°C° 0.4 mm 3 mps 719 mmHg 73%
    16:00 +22°C° 0.4 mm 3 mps 719 mmHg 75%
    17:00 +20°C° 0.2 mm 3 mps 719 mmHg 81%
    18:00 +19°C° 0.2 mm 2 mps 719 mmHg 86%
    19:00 +18°C° 0.2 mm 2 mps 718 mmHg 92%
    20:00 +17°C° 0.1 mm 2 mps 719 mmHg 94%
    21:00 +16°C° 0.1 mm 1 mps 719 mmHg 95%
    22:00 +16°C° 0.1 mm 1 mps 719 mmHg 97%
    23:00 +15°C° 0 mm 1 mps 719 mmHg 97%
    Show more